Time,TemperatureF,DewpointF,PressureIn,WindDirection,WindDirectionDegrees,WindSpeedMPH,WindSpeedGustMPH,Humidity,HourlyPrecipIn,Conditions,Clouds,dailyrainin,SoftwareType,DateUTC
2013-02-03 00:01:00,66.0,58.0,30.14,West,261,2.0,6.0,75,0.00,,,0.00,,2013-02-03 10:01:00,
2013-02-03 00:11:00,66.0,58.0,30.14,West,261,2.0,6.0,75,0.00,,,0.00,,2013-02-03 10:11:00,
2013-02-03 00:21:00,65.0,57.0,30.14,WNW,293,3.0,6.0,76,0.00,,,0.00,,2013-02-03 10:21:00,
2013-02-03 00:31:00,65.0,58.0,30.14,WNW,284,2.0,6.0,77,0.00,,,0.00,,2013-02-03 10:31:00,
2013-02-03 00:41:00,65.0,58.0,30.14,WNW,284,2.0,6.0,77,0.00,,,0.00,,2013-02-03 10:41:00,
2013-02-03 00:52:00,64.0,57.0,30.14,West,262,1.0,6.0,78,0.00,,,0.00,,2013-02-03 10:52:00,
2013-02-03 01:01:00,64.0,57.0,30.14,WNW,286,2.0,6.0,78,0.00,,,0.00,,2013-02-03 11:01:00,
2013-02-03 01:11:00,64.0,57.0,30.14,WNW,286,2.0,6.0,78,0.00,,,0.00,,2013-02-03 11:11:00,
2013-02-03 01:22:00,64.0,57.0,30.14,West,276,2.0,5.0,79,0.00,,,0.00,,2013-02-03 11:22:00,
2013-02-03 01:31:00,64.0,57.0,30.13,WNW,288,2.0,5.0,79,0.00,,,0.00,,2013-02-03 11:31:00,
2013-02-03 01:41:00,64.0,57.0,30.13,WNW,288,2.0,5.0,79,0.00,,,0.00,,2013-02-03 11:41:00,
2013-02-03 01:52:00,64.0,58.0,30.13,WNW,284,2.0,5.0,80,0.00,,,0.00,,2013-02-03 11:52:00,
2013-02-03 02:02:00,64.0,58.0,30.13,West,278,2.0,5.0,80,0.00,,,0.00,,2013-02-03 12:02:00,
2013-02-03 02:11:00,64.0,58.0,30.13,West,278,2.0,5.0,80,0.00,,,0.00,,2013-02-03 12:11:00,
2013-02-03 02:21:00,64.0,58.0,30.12,West,281,3.0,6.0,80,0.00,,,0.00,,2013-02-03 12:21:00,
2013-02-03 02:32:00,64.0,58.0,30.12,NW,311,5.0,7.0,80,0.00,,,0.00,,2013-02-03 12:32:00,
2013-02-03 02:42:00,64.0,58.0,30.12,NW,311,5.0,7.0,80,0.00,,,0.00,,2013-02-03 12:42:00,
2013-02-03 02:53:00,64.0,58.0,30.11,West,280,3.0,7.0,80,0.00,,,0.00,,2013-02-03 12:53:00,
2013-02-03 03:02:00,65.0,59.0,30.11,WNW,300,3.0,5.0,80,0.00,,,0.00,,2013-02-03 13:02:00,
2013-02-03 03:11:00,65.0,59.0,30.11,WNW,300,3.0,5.0,80,0.00,,,0.00,,2013-02-03 13:11:00,
2013-02-03 03:21:00,65.0,59.0,30.11,WNW,301,2.0,6.0,80,0.00,,,0.00,,2013-02-03 13:21:00,
2013-02-03 03:32:00,65.0,59.0,30.11,NW,305,2.0,5.0,80,0.00,,,0.00,,2013-02-03 13:32:00,
2013-02-03 03:41:00,65.0,59.0,30.11,NW,305,2.0,5.0,80,0.00,,,0.00,,2013-02-03 13:41:00,
2013-02-03 03:52:00,65.0,59.0,30.12,WNW,289,3.0,6.0,80,0.00,,,0.00,,2013-02-03 13:52:00,
2013-02-03 04:02:00,65.0,58.0,30.11,West,272,4.0,7.0,79,0.00,,,0.00,,2013-02-03 14:02:00,
2013-02-03 04:11:00,65.0,58.0,30.11,West,272,4.0,7.0,79,0.00,,,0.00,,2013-02-03 14:11:00,
2013-02-03 04:21:00,65.0,58.0,30.12,WNW,292,2.0,5.0,79,0.00,,,0.00,,2013-02-03 14:21:00,
2013-02-03 04:31:00,65.0,58.0,30.12,WNW,286,3.0,5.0,79,0.00,,,0.00,,2013-02-03 14:31:00,
2013-02-03 04:42:00,65.0,58.0,30.12,WNW,286,3.0,5.0,79,0.00,,,0.00,,2013-02-03 14:42:00,
2013-02-03 04:52:00,65.0,58.0,30.12,WNW,297,4.0,7.0,79,0.00,,,0.00,,2013-02-03 14:52:00,
2013-02-03 05:02:00,65.0,58.0,30.12,NW,308,4.0,7.0,79,0.00,,,0.00,,2013-02-03 15:02:00,
2013-02-03 05:11:00,65.0,58.0,30.12,NW,308,4.0,7.0,79,0.00,,,0.00,,2013-02-03 15:11:00,
2013-02-03 05:21:00,65.0,58.0,30.13,NW,305,5.0,8.0,79,0.00,,,0.00,,2013-02-03 15:21:00,
2013-02-03 05:32:00,65.0,58.0,30.13,WNW,297,4.0,7.0,79,0.00,,,0.00,,2013-02-03 15:32:00,
2013-02-03 05:41:00,65.0,58.0,30.13,WNW,297,4.0,7.0,79,0.00,,,0.00,,2013-02-03 15:41:00,
2013-02-03 05:52:00,66.0,59.0,30.13,WNW,297,4.0,8.0,79,0.00,,,0.00,,2013-02-03 15:52:00,
2013-02-03 06:02:00,66.0,59.0,30.13,West,280,3.0,7.0,78,0.00,,,0.00,,2013-02-03 16:02:00,
2013-02-03 06:11:00,66.0,59.0,30.13,West,280,3.0,7.0,78,0.00,,,0.00,,2013-02-03 16:11:00,
2013-02-03 06:21:00,66.0,59.0,30.13,West,270,2.0,6.0,79,0.00,,,0.00,,2013-02-03 16:21:00,
2013-02-03 06:32:00,65.0,58.0,30.14,WNW,288,4.0,7.0,79,0.00,,,0.00,,2013-02-03 16:32:00,
2013-02-03 06:41:00,65.0,58.0,30.14,WNW,288,4.0,7.0,79,0.00,,,0.00,,2013-02-03 16:41:00,
2013-02-03 06:52:00,66.0,60.0,30.14,WNW,298,4.0,9.0,80,0.00,,,0.00,,2013-02-03 16:52:00,
2013-02-03 07:02:00,66.0,59.0,30.15,WNW,295,3.0,6.0,78,0.00,,,0.00,,2013-02-03 17:02:00,
2013-02-03 07:11:00,66.0,59.0,30.15,WNW,295,3.0,6.0,78,0.00,,,0.00,,2013-02-03 17:11:00,
2013-02-03 07:21:00,66.0,59.0,30.15,WNW,289,3.0,7.0,78,0.00,,,0.00,,2013-02-03 17:21:00,
2013-02-03 07:31:00,65.0,58.0,30.15,NW,314,5.0,9.0,79,0.00,,,0.00,,2013-02-03 17:31:00,
2013-02-03 07:41:00,65.0,58.0,30.15,NW,314,5.0,9.0,79,0.00,,,0.00,,2013-02-03 17:41:00,
2013-02-03 07:52:00,66.0,59.0,30.15,WNW,282,4.0,8.0,79,0.00,,,0.00,,2013-02-03 17:52:00,
2013-02-03 08:02:00,66.0,59.0,30.16,NNW,332,5.0,8.0,79,0.00,,,0.00,,2013-02-03 18:02:00,
2013-02-03 08:11:00,66.0,59.0,30.16,NNW,332,5.0,8.0,79,0.00,,,0.00,,2013-02-03 18:11:00,
2013-02-03 08:23:00,67.0,60.0,30.16,WNW,296,4.0,7.0,78,0.00,,,0.00,,2013-02-03 18:23:00,
2013-02-03 08:32:00,68.0,60.0,30.16,NNE,13,6.0,10.0,76,0.00,,,0.00,,2013-02-03 18:32:00,
2013-02-03 08:41:00,68.0,60.0,30.16,NNE,13,6.0,10.0,76,0.00,,,0.00,,2013-02-03 18:41:00,
2013-02-03 08:52:00,70.0,61.0,30.16,North,10,6.0,10.0,74,0.00,,,0.00,,2013-02-03 18:52:00,
2013-02-03 09:01:00,71.0,61.0,30.17,NNW,342,6.0,11.0,71,0.00,,,0.00,,2013-02-03 19:01:00,
2013-02-03 09:11:00,71.0,61.0,30.17,NNW,342,6.0,11.0,71,0.00,,,0.00,,2013-02-03 19:11:00,
2013-02-03 09:21:00,71.0,61.0,30.17,North,356,5.0,13.0,70,0.00,,,0.00,,2013-02-03 19:21:00,
2013-02-03 09:31:00,72.0,62.0,30.18,NNW,343,6.0,17.0,70,0.00,,,0.00,,2013-02-03 19:31:00,
2013-02-03 09:41:00,72.0,62.0,30.18,NNW,343,6.0,17.0,70,0.00,,,0.00,,2013-02-03 19:41:00,
2013-02-03 09:52:00,72.0,60.0,30.18,North,2,4.0,13.0,67,0.00,,,0.00,,2013-02-03 19:52:00,
2013-02-03 10:01:00,72.0,61.0,30.18,North,3,8.0,12.0,69,0.00,,,0.00,,2013-02-03 20:01:00,
2013-02-03 10:11:00,72.0,61.0,30.18,North,3,8.0,12.0,69,0.00,,,0.00,,2013-02-03 20:11:00,
2013-02-03 10:21:00,72.0,61.0,30.19,North,356,8.0,12.0,68,0.00,,,0.00,,2013-02-03 20:21:00,
2013-02-03 10:32:00,73.0,60.0,30.18,NW,310,6.0,11.0,64,0.00,,,0.00,,2013-02-03 20:32:00,
2013-02-03 10:42:00,73.0,60.0,30.18,NW,310,6.0,11.0,64,0.00,,,0.00,,2013-02-03 20:42:00,
2013-02-03 10:52:00,75.0,61.0,30.18,North,355,4.0,9.0,61,0.00,,,0.00,,2013-02-03 20:52:00,
2013-02-03 11:02:00,75.0,60.0,30.17,North,353,5.0,11.0,60,0.00,,,0.00,,2013-02-03 21:02:00,
2013-02-03 11:11:00,75.0,60.0,30.17,North,353,5.0,11.0,60,0.00,,,0.00,,2013-02-03 21:11:00,
2013-02-03 11:21:00,74.0,59.0,30.17,NW,318,8.0,13.0,59,0.00,,,0.00,,2013-02-03 21:21:00,
2013-02-03 11:32:00,75.0,60.0,30.17,WNW,299,5.0,15.0,60,0.00,,,0.00,,2013-02-03 21:32:00,
2013-02-03 11:42:00,75.0,60.0,30.17,WNW,299,5.0,15.0,60,0.00,,,0.00,,2013-02-03 21:42:00,
2013-02-03 11:52:00,75.0,60.0,30.16,NNE,20,5.0,11.0,60,0.00,,,0.00,,2013-02-03 21:52:00,
2013-02-03 12:01:00,76.0,61.0,30.16,North,359,6.0,12.0,60,0.00,,,0.00,,2013-02-03 22:01:00,
2013-02-03 12:11:00,76.0,61.0,30.16,North,359,6.0,12.0,60,0.00,,,0.00,,2013-02-03 22:11:00,
2013-02-03 12:21:00,75.0,60.0,30.15,NW,322,6.0,16.0,59,0.00,,,0.00,,2013-02-03 22:21:00,
2013-02-03 12:31:00,74.0,61.0,30.14,WNW,301,5.0,14.0,65,0.00,,,0.00,,2013-02-03 22:31:00,
2013-02-03 12:41:00,74.0,61.0,30.14,WNW,301,5.0,14.0,65,0.00,,,0.00,,2013-02-03 22:41:00,
2013-02-03 12:52:00,75.0,61.0,30.14,NW,309,10.0,14.0,62,0.00,,,0.00,,2013-02-03 22:52:00,
2013-02-03 13:01:00,75.0,62.0,30.13,NW,323,5.0,11.0,63,0.00,,,0.00,,2013-02-03 23:01:00,
2013-02-03 13:11:00,75.0,62.0,30.13,NW,323,5.0,11.0,63,0.00,,,0.00,,2013-02-03 23:11:00,
2013-02-03 13:21:00,75.0,62.0,30.12,North,355,8.0,18.0,63,0.00,,,0.00,,2013-02-03 23:21:00,
2013-02-03 13:32:00,75.0,61.0,30.11,NNE,14,7.0,14.0,62,0.00,,,0.00,,2013-02-03 23:32:00,
2013-02-03 13:41:00,75.0,61.0,30.11,NNE,14,7.0,14.0,62,0.00,,,0.00,,2013-02-03 23:41:00,
2013-02-03 13:52:00,76.0,62.0,30.10,North,351,6.0,12.0,63,0.00,,,0.00,,2013-02-03 23:52:00,
2013-02-03 14:01:00,75.0,60.0,30.10,NNE,18,7.0,12.0,59,0.00,,,0.00,,2013-02-04 00:01:00,
2013-02-03 14:11:00,75.0,60.0,30.10,NNE,18,7.0,12.0,59,0.00,,,0.00,,2013-02-04 00:11:00,
2013-02-03 14:21:00,75.0,61.0,30.09,North,8,8.0,15.0,61,0.00,,,0.00,,2013-02-04 00:21:00,
2013-02-03 14:31:00,75.0,61.0,30.09,NNW,327,8.0,15.0,61,0.00,,,0.00,,2013-02-04 00:31:00,
2013-02-03 14:41:00,75.0,61.0,30.09,NNW,327,8.0,15.0,61,0.00,,,0.00,,2013-02-04 00:41:00,
2013-02-03 14:52:00,76.0,63.0,30.08,NNE,26,7.0,16.0,64,0.00,,,0.00,,2013-02-04 00:52:00,
2013-02-03 15:01:00,75.0,63.0,30.08,NNW,341,6.0,14.0,66,0.00,,,0.00,,2013-02-04 01:01:00,
2013-02-03 15:11:00,75.0,63.0,30.08,NNW,341,6.0,14.0,66,0.00,,,0.00,,2013-02-04 01:11:00,
2013-02-03 15:21:00,76.0,63.0,30.08,North,360,7.0,14.0,65,0.00,,,0.00,,2013-02-04 01:21:00,
2013-02-03 15:31:00,76.0,63.0,30.07,NNE,27,6.0,14.0,64,0.00,,,0.00,,2013-02-04 01:31:00,
2013-02-03 15:41:00,76.0,63.0,30.07,NNE,27,6.0,14.0,64,0.00,,,0.00,,2013-02-04 01:41:00,
2013-02-03 15:52:00,75.0,62.0,30.07,NW,318,7.0,13.0,64,0.00,,,0.00,,2013-02-04 01:52:00,
2013-02-03 16:01:00,75.0,62.0,30.07,NE,55,8.0,12.0,65,0.00,,,0.00,,2013-02-04 02:01:00,
2013-02-03 16:11:00,75.0,62.0,30.07,NE,55,8.0,12.0,65,0.00,,,0.00,,2013-02-04 02:11:00,
2013-02-03 16:21:00,75.0,63.0,30.08,NE,39,7.0,14.0,67,0.00,,,0.00,,2013-02-04 02:21:00,
2013-02-03 16:31:00,75.0,62.0,30.08,NNE,14,6.0,11.0,65,0.00,,,0.00,,2013-02-04 02:31:00,
2013-02-03 16:41:00,75.0,62.0,30.08,NNE,14,6.0,11.0,65,0.00,,,0.00,,2013-02-04 02:41:00,
2013-02-03 16:52:00,74.0,61.0,30.09,North,354,9.0,15.0,65,0.00,,,0.00,,2013-02-04 02:52:00,
2013-02-03 17:01:00,74.0,61.0,30.09,NNE,12,7.0,15.0,64,0.00,,,0.00,,2013-02-04 03:01:00,
2013-02-03 17:11:00,74.0,61.0,30.09,NNE,12,7.0,15.0,64,0.00,,,0.00,,2013-02-04 03:11:00,
2013-02-03 17:21:00,74.0,61.0,30.10,North,360,5.0,14.0,65,0.00,,,0.00,,2013-02-04 03:21:00,
2013-02-03 17:31:00,74.0,62.0,30.10,NNE,29,6.0,15.0,66,0.00,,,0.00,,2013-02-04 03:31:00,
2013-02-03 17:41:00,74.0,62.0,30.10,NNE,29,6.0,15.0,66,0.00,,,0.00,,2013-02-04 03:41:00,
2013-02-03 17:52:00,73.0,61.0,30.10,North,6,5.0,14.0,67,0.00,,,0.00,,2013-02-04 03:52:00,
2013-02-03 18:01:00,72.0,61.0,30.10,NNW,337,8.0,15.0,69,0.00,,,0.00,,2013-02-04 04:01:00,
2013-02-03 18:11:00,72.0,61.0,30.10,NNW,337,8.0,15.0,69,0.00,,,0.00,,2013-02-04 04:11:00,
2013-02-03 18:21:00,72.0,62.0,30.11,North,357,7.0,17.0,70,0.00,,,0.00,,2013-02-04 04:21:00,
2013-02-03 18:31:00,72.0,61.0,30.11,NW,315,8.0,15.0,69,0.00,,,0.00,,2013-02-04 04:31:00,
2013-02-03 18:41:00,72.0,61.0,30.11,NW,315,8.0,15.0,69,0.00,,,0.00,,2013-02-04 04:41:00,
2013-02-03 18:52:00,72.0,62.0,30.11,North,355,7.0,14.0,72,0.00,,,0.00,,2013-02-04 04:52:00,
2013-02-03 19:03:00,72.0,62.0,30.12,NNW,328,9.0,15.0,71,0.00,,,0.00,,2013-02-04 05:03:00,
2013-02-03 19:11:00,72.0,62.0,30.12,NNW,328,9.0,15.0,71,0.00,,,0.00,,2013-02-04 05:11:00,
2013-02-03 19:22:00,71.0,63.0,30.13,NNE,26,11.0,19.0,75,0.00,,,0.00,,2013-02-04 05:22:00,
2013-02-03 19:33:00,70.0,62.0,30.13,North,351,8.0,15.0,76,0.00,,,0.00,,2013-02-04 05:33:00,
2013-02-03 19:41:00,70.0,62.0,30.13,North,351,8.0,15.0,76,0.00,,,0.00,,2013-02-04 05:41:00,
2013-02-03 19:52:00,70.0,62.0,30.13,NNW,347,6.0,14.0,75,0.00,,,0.00,,2013-02-04 05:52:00,
2013-02-03 20:01:00,71.0,62.0,30.13,NNE,13,10.0,16.0,73,0.00,,,0.00,,2013-02-04 06:01:00,
2013-02-03 20:11:00,71.0,62.0,30.13,NNE,13,10.0,16.0,73,0.00,,,0.00,,2013-02-04 06:11:00,
2013-02-03 20:21:00,71.0,60.0,30.14,NNW,342,9.0,14.0,69,0.00,,,0.00,,2013-02-04 06:21:00,
2013-02-03 20:31:00,72.0,59.0,30.14,NW,323,9.0,17.0,64,0.00,,,0.00,,2013-02-04 06:31:00,
2013-02-03 20:41:00,72.0,59.0,30.14,NW,323,9.0,17.0,64,0.00,,,0.00,,2013-02-04 06:41:00,
2013-02-03 20:52:00,72.0,60.0,30.14,NNW,328,11.0,18.0,65,0.00,,,0.00,,2013-02-04 06:52:00,
2013-02-03 21:01:00,72.0,60.0,30.14,NE,56,8.0,21.0,67,0.00,,,0.00,,2013-02-04 07:01:00,
2013-02-03 21:11:00,72.0,60.0,30.14,NE,56,8.0,21.0,67,0.00,,,0.00,,2013-02-04 07:11:00,
2013-02-03 21:21:00,72.0,59.0,30.15,NNW,347,11.0,21.0,64,0.00,,,0.00,,2013-02-04 07:21:00,
2013-02-03 21:31:00,71.0,58.0,30.15,NE,39,10.0,19.0,63,0.00,,,0.00,,2013-02-04 07:31:00,
2013-02-03 21:41:00,71.0,58.0,30.15,NE,39,10.0,19.0,63,0.00,,,0.00,,2013-02-04 07:41:00,
2013-02-03 21:52:00,72.0,59.0,30.15,NNW,343,7.0,16.0,63,0.00,,,0.00,,2013-02-04 07:52:00,
2013-02-03 22:01:00,72.0,60.0,30.16,North,355,7.0,16.0,66,0.00,,,0.00,,2013-02-04 08:01:00,
2013-02-03 22:11:00,72.0,60.0,30.16,North,355,7.0,16.0,66,0.00,,,0.00,,2013-02-04 08:11:00,
2013-02-03 22:21:00,72.0,60.0,30.15,NNE,24,8.0,15.0,67,0.00,,,0.00,,2013-02-04 08:21:00,
2013-02-03 22:31:00,72.0,62.0,30.15,NW,326,6.0,13.0,70,0.00,,,0.00,,2013-02-04 08:31:00,
2013-02-03 22:41:00,72.0,62.0,30.15,NW,326,6.0,13.0,70,0.00,,,0.00,,2013-02-04 08:41:00,
2013-02-03 22:52:00,71.0,59.0,30.15,North,4,10.0,17.0,66,0.00,,,0.00,,2013-02-04 08:52:00,
2013-02-03 23:01:00,72.0,59.0,30.15,North,357,11.0,18.0,64,0.00,,,0.00,,2013-02-04 09:01:00,
2013-02-03 23:11:00,72.0,59.0,30.15,North,357,11.0,18.0,64,0.00,,,0.00,,2013-02-04 09:11:00,
2013-02-03 23:21:00,72.0,59.0,30.15,NW,306,8.0,14.0,64,0.00,,,0.00,,2013-02-04 09:21:00,
2013-02-03 23:31:00,71.0,60.0,30.14,NW,304,11.0,20.0,69,0.00,,,0.00,,2013-02-04 09:31:00,
2013-02-03 23:41:00,71.0,60.0,30.14,NW,304,11.0,20.0,69,0.00,,,0.00,,2013-02-04 09:41:00,
2013-02-03 23:52:00,70.0,61.0,30.14,North,355,7.0,19.0,73,0.00,,,0.00,,2013-02-04 09:52:00,